Tongo Airport

Jump to: basic info | weather | comments

Related pages: nearby airports | nearby navaids | notams | map

Basic information (top)

Codes: GFTO
Location: lon 8.217000, lat -11.067000, elev 750 ft / 229 m msl
Status: small_airport

Weather (top)

Current conditions for Roberts International Airport 126nm (234km) SSE (rec'd 2015/03/02 10:30Z):

GLRB 021030Z 30005KT 7000 SKC 28/23 Q1013 RMK HZVC

Airport forecast for Roberts International Airport 126nm (234km) SSE (rec'd 2015/03/01 12:51Z):

TAF GLRB 011000Z 0112/0218 22010KT 9999 BKN017 
     FM011300 23010KT 9999 SCT018 
      TEMPO 0119/0123 00000KT 9999 NSC

Latest comments (top)

No comments yet for Tongo Airport

More... (top)

See also NOTAMs and nearby airports and navaids, or visit the Tongo Airport page at the main OurAirports website..